TimeEDT,TemperatureF,Dew PointF,Humidity,Sea Level PressureIn,VisibilityMPH,Wind Direction,Wind SpeedMPH,Gust SpeedMPH,PrecipitationIn,Events,Conditions,WindDirDegrees,DateUTC
12:15 AM,62.6,39.2,42,29.91,10.0,South,11.5,-,N/A,,Clear,190,2013-04-07 04:15:00
12:35 AM,60.8,39.2,45,29.92,10.0,South,11.5,-,N/A,,Clear,190,2013-04-07 04:35:00
12:55 AM,60.8,37.4,42,29.92,10.0,South,12.7,-,N/A,,Clear,190,2013-04-07 04:55:00
1:15 AM,60.8,37.4,42,29.91,10.0,South,15.0,18.4,N/A,,Clear,190,2013-04-07 05:15:00
1:35 AM,60.8,37.4,42,29.91,10.0,South,13.8,-,N/A,,Clear,190,2013-04-07 05:35:00
1:55 AM,60.8,37.4,42,29.91,10.0,South,18.4,23.0,N/A,,Partly Cloudy,190,2013-04-07 05:55:00
2:16 AM,60.8,37.4,42,29.91,10.0,South,16.1,-,N/A,,Partly Cloudy,190,2013-04-07 06:16:00
2:35 AM,60.8,37.4,42,29.91,10.0,SSW,13.8,23.0,N/A,,Clear,200,2013-04-07 06:35:00
3:15 AM,60.8,37.4,42,29.90,10.0,SSW,15.0,-,N/A,,Partly Cloudy,200,2013-04-07 07:15:00
3:35 AM,60.8,37.4,42,29.90,10.0,SSW,12.7,19.6,N/A,,Partly Cloudy,200,2013-04-07 07:35:00
4:15 AM,59.0,37.4,45,29.89,10.0,SSW,13.8,-,N/A,,Clear,200,2013-04-07 08:15:00
4:55 AM,59.0,37.4,45,29.89,10.0,SSW,15.0,-,N/A,,Clear,200,2013-04-07 08:55:00
5:15 AM,59.0,37.4,45,29.90,10.0,SSW,12.7,-,N/A,,Clear,200,2013-04-07 09:15:00
5:35 AM,57.2,39.2,51,29.90,10.0,South,11.5,-,N/A,,Clear,190,2013-04-07 09:35:00
5:55 AM,57.2,39.2,51,29.90,10.0,SSW,12.7,-,N/A,,Scattered Clouds,200,2013-04-07 09:55:00
6:15 AM,57.2,39.2,51,29.90,10.0,SSW,11.5,-,N/A,,Mostly Cloudy,200,2013-04-07 10:15:00
6:35 AM,59.0,39.2,48,29.91,10.0,SSW,11.5,-,N/A,,Mostly Cloudy,200,2013-04-07 10:35:00
6:55 AM,57.2,39.2,51,29.92,10.0,SSW,12.7,-,N/A,,Mostly Cloudy,200,2013-04-07 10:55:00
7:15 AM,57.2,39.2,51,29.92,10.0,SSW,12.7,-,N/A,,Mostly Cloudy,200,2013-04-07 11:15:00
7:35 AM,57.2,39.2,51,29.93,10.0,SSW,10.4,-,N/A,,Partly Cloudy,210,2013-04-07 11:35:00
7:55 AM,55.4,41.0,58,29.94,10.0,SSW,9.2,-,N/A,,Clear,200,2013-04-07 11:55:00
8:15 AM,57.2,41.0,55,29.95,10.0,SSW,10.4,-,N/A,,Clear,200,2013-04-07 12:15:00
8:35 AM,57.2,42.8,59,29.95,10.0,South,9.2,-,N/A,,Clear,190,2013-04-07 12:35:00
8:55 AM,59.0,42.8,55,29.96,10.0,SSW,8.1,-,N/A,,Clear,200,2013-04-07 12:55:00
9:15 AM,60.8,42.8,52,29.97,10.0,SSW,9.2,-,N/A,,Partly Cloudy,200,2013-04-07 13:15:00
9:35 AM,62.6,44.6,52,29.97,10.0,SW,13.8,-,N/A,,Partly Cloudy,220,2013-04-07 13:35:00
10:15 AM,64.4,46.4,52,29.97,10.0,SW,11.5,-,N/A,,Clear,220,2013-04-07 14:15:00
10:35 AM,64.4,46.4,52,29.97,10.0,SSW,16.1,-,N/A,,Clear,210,2013-04-07 14:35:00
10:55 AM,66.2,46.4,49,29.97,10.0,SSW,15.0,-,N/A,,Clear,210,2013-04-07 14:55:00
11:15 AM,66.2,48.2,52,29.97,10.0,SW,12.7,-,N/A,,Clear,230,2013-04-07 15:15:00
11:35 AM,66.2,48.2,52,29.98,10.0,WSW,10.4,16.1,N/A,,Clear,240,2013-04-07 15:35:00
11:55 AM,68.0,48.2,49,29.98,10.0,SW,10.4,17.3,N/A,,Clear,230,2013-04-07 15:55:00
12:15 PM,68.0,48.2,49,29.99,10.0,WSW,9.2,-,N/A,,Clear,240,2013-04-07 16:15:00
1:15 PM,71.6,51.8,50,29.97,10.0,SSW,10.4,-,N/A,,Clear,200,2013-04-07 17:15:00
1:35 PM,71.6,51.8,50,29.97,10.0,SSW,10.4,-,N/A,,Clear,210,2013-04-07 17:35:00
1:55 PM,71.6,51.8,50,29.97,10.0,South,12.7,-,N/A,,Clear,180,2013-04-07 17:55:00
2:15 PM,71.6,51.8,50,29.97,10.0,SSW,10.4,19.6,N/A,,Clear,200,2013-04-07 18:15:00
2:35 PM,71.6,51.8,50,29.96,10.0,SSW,12.7,-,N/A,,Partly Cloudy,200,2013-04-07 18:35:00
2:55 PM,71.6,51.8,50,29.96,10.0,South,6.9,-,N/A,,Partly Cloudy,190,2013-04-07 18:55:00
3:15 PM,71.6,51.8,50,29.96,10.0,South,9.2,-,N/A,,Mostly Cloudy,190,2013-04-07 19:15:00
3:35 PM,73.4,53.6,50,29.96,10.0,SSW,11.5,18.4,N/A,,Scattered Clouds,210,2013-04-07 19:35:00
3:55 PM,71.6,51.8,50,29.95,10.0,South,8.1,-,N/A,,Scattered Clouds,190,2013-04-07 19:55:00
4:15 PM,71.6,51.8,50,29.95,10.0,SSW,10.4,-,N/A,,Mostly Cloudy,210,2013-04-07 20:15:00
4:35 PM,71.6,53.6,53,29.95,10.0,SSW,10.4,-,N/A,,Mostly Cloudy,210,2013-04-07 20:35:00
4:55 PM,71.6,53.6,53,29.95,10.0,SSW,11.5,-,N/A,,Scattered Clouds,210,2013-04-07 20:55:00
5:15 PM,71.6,51.8,50,29.94,10.0,South,10.4,-,N/A,,Partly Cloudy,190,2013-04-07 21:15:00
5:35 PM,71.6,53.6,53,29.94,10.0,SSW,11.5,-,N/A,,Partly Cloudy,200,2013-04-07 21:35:00
5:55 PM,69.8,53.6,56,29.94,10.0,South,10.4,-,N/A,,Partly Cloudy,170,2013-04-07 21:55:00
6:15 PM,71.6,53.6,53,29.94,10.0,SSW,10.4,-,N/A,,Partly Cloudy,200,2013-04-07 22:15:00
6:35 PM,71.6,53.6,53,29.94,10.0,South,11.5,-,N/A,,Scattered Clouds,190,2013-04-07 22:35:00
6:55 PM,69.8,53.6,56,29.93,10.0,South,10.4,-,N/A,,Scattered Clouds,170,2013-04-07 22:55:00
7:15 PM,69.8,53.6,56,29.93,10.0,South,11.5,-,N/A,,Partly Cloudy,190,2013-04-07 23:15:00
7:35 PM,68.0,53.6,60,29.93,10.0,South,9.2,-,N/A,,Partly Cloudy,180,2013-04-07 23:35:00
7:55 PM,66.2,51.8,60,29.93,10.0,South,8.1,-,N/A,,Partly Cloudy,180,2013-04-07 23:55:00
8:15 PM,64.4,51.8,64,29.93,10.0,South,8.1,-,N/A,,Clear,180,2013-04-08 00:15:00
8:35 PM,64.4,51.8,64,29.93,10.0,South,6.9,-,N/A,,Clear,180,2013-04-08 00:35:00
8:55 PM,64.4,51.8,64,29.94,10.0,South,5.8,-,N/A,,Clear,180,2013-04-08 00:55:00
9:15 PM,64.4,51.8,64,29.94,10.0,South,5.8,-,N/A,,Clear,170,2013-04-08 01:15:00
9:35 PM,64.4,50.0,59,29.95,10.0,SSE,3.5,-,N/A,,Clear,160,2013-04-08 01:35:00
9:55 PM,64.4,50.0,59,29.95,10.0,SSE,4.6,-,N/A,,Clear,160,2013-04-08 01:55:00
10:15 PM,62.6,50.0,63,29.96,10.0,South,3.5,-,N/A,,Clear,170,2013-04-08 02:15:00
10:35 PM,62.6,50.0,63,29.97,10.0,South,3.5,-,N/A,,Clear,180,2013-04-08 02:35:00
10:55 PM,62.6,50.0,63,29.97,10.0,SW,3.5,-,N/A,,Clear,230,2013-04-08 02:55:00
11:15 PM,60.8,50.0,68,29.97,10.0,North,9.2,-,N/A,,Mostly Cloudy,350,2013-04-08 03:15:00
11:35 PM,60.8,51.8,72,29.97,10.0,NNE,4.6,-,N/A,,Mostly Cloudy,20,2013-04-08 03:35:00
11:55 PM,60.8,51.8,72,29.97,10.0,North,4.6,-,N/A,,Scattered Clouds,360,2013-04-08 03:55:00